Home > Weather > St. John's > Past weeks

Flag for Canada Weather for the Past 2 Weeks in St. John's, Newfoundland and Labrador, Canada

Now
28 °F

Passing clouds.


Feels Like: 18 °F
Forecast: 26 / 30 °F
Wind: 13 mph from West

Location: St. John's

Current Time: Feb 11, 2016 at 3:05:02 AM

Latest Report: Feb 11, 2016 at 2:30 AM


Visibility: 15 mi

Pressure: 29.56 "Hg

Humidity: 80%

Dew point: 23 °F

Location of St. John'sLocation

Historic Weather in St. John's — Graph

°F

St. John's Temperature Yesterday

Maximum temperature yesterday: 32 °F (at 12:30 AM)
Minimum temperature yesterday: 28 °F (at 7:30 PM)
Average temperature yesterday: 31 °F

High & Low Weather Summary for the Past Weeks

 TemperatureHumidityPressure
High55 °F (Feb 6, 5:30 AM)100% (Jan 27, 11:30 AM)30.39 "Hg (Jan 27, 11:30 AM)
Low16 °F (Feb 3, 5:30 AM)54% (Feb 3, 2:30 PM)28.69 "Hg (Jan 30, 4:30 AM)
Average30 °F84%29.80 "Hg
* Reported Jan 27 1:30 AM — Feb 11 1:30 AM, St. John's, Weather by CustomWeather, © 2016

Note: Actual official high and low records may vary slightly from our data, if they occured in-between our weather recording intervals... More about our weather records

Advertising

St. John's Weather History for the Previous 24 Hours

 ConditionsComfort  
Time TempWeatherWind HumidityBarometerVisibility
1:30 AM
Thu, Feb 11
28 °FOvercast.14 mph80%29.55 "Hg15 mi
12:30 AM28 °FOvercast.14 mph80%29.58 "Hg15 mi
11:30 PM
Wed, Feb 10
28 °FPassing clouds.22 mph80%29.52 "Hg15 mi
10:30 PM28 °FPassing clouds.28 mph80%29.52 "Hg15 mi
9:30 PM28 °FPassing clouds.28 mph86%29.53 "Hg15 mi
8:30 PM28 °FPassing clouds.32 mph86%29.50 "Hg15 mi
7:30 PM28 °FPassing clouds.37 mph86%29.47 "Hg15 mi
6:30 PM30 °FPassing clouds.32 mph80%29.44 "Hg15 mi
5:30 PM30 °FPassing clouds.35 mph86%29.41 "Hg15 mi
4:30 PM30 °FPartly sunny.32 mph86%29.36 "Hg15 mi
3:30 PM32 °FPartly sunny.30 mph87%29.36 "Hg15 mi
2:30 PM32 °FPartly sunny.32 mph87%29.34 "Hg15 mi
1:30 PM32 °FPartly sunny.37 mph87%29.29 "Hg15 mi
12:30 PM32 °FBroken clouds.28 mph87%29.24 "Hg10 mi
11:30 AM32 °FBroken clouds.37 mph87%29.18 "Hg15 mi
10:30 AM32 °FLight rain. Ice fog.37 mph93%29.09 "Hg6 mi
9:30 AM32 °FIce fog.35 mph93%28.99 "Hg3 mi
8:30 AM32 °FLight freezing rain. Ice fog.21 mph93%28.92 "Hg1 mi
7:30 AM32 °FLight freezing rain. Ice fog.No wind93%28.89 "Hg3 mi
6:30 AM30 °FLight freezing rain. Ice fog.14 mph100%28.97 "Hg2 mi
5:30 AM30 °FLight freezing rain. Ice fog.24 mph93%29.04 "Hg1 mi
4:30 AM30 °FLight freezing rain. Ice fog.15 mph93%29.13 "Hg0 mi
3:30 AM30 °FLight freezing rain. Ice fog.15 mph93%29.24 "Hg1 mi
Weather by CustomWeather, © 2016

See weather overviewHow to use our weather pages